Regional Weather Roundup
Issued by NWS

Home | Current Version | Previous Version | Text Only | Print | Product List | Glossary On
Versions: 1 2 3 4 5 6 7 8 9 10 11 12 13 14 15 16 17 18 19 20 21 22 23 24 25 26 27 28 29 30 31 32 33 34 35 36 37 38 39 40 41 42 43 44 45 46 47 48 49 50
000
ASPQ40 PGUM 020010
RWRPQ
WEATHER ROUNDUP FOR THE MARIANAS AND MICRONESIA
NATIONAL WEATHER SERVICE TIYAN GU
1000 AM CHST WED SEP 02 2015

GUZ001>004-020100-
MARIANA ISLANDS-

CITY           SKY/WX    TMP DP  RH WIND       PRES   REMARKS
GUAM AIRPORT   PTSUNNY   82  77  83 E7        29.93R HX  91
ANDERSEN AFB   MOSUNNY   82  75  78 SE10      29.93S
ROTA AIRPORT   MOSUNNY   82  77  83 VRB6      29.93S HX  91
TINIAN AP      MOSUNNY   86  77  74 E9        29.90S HX  97
SAIPAN AP      MOSUNNY   82  79  89 E10       29.91S HX  93

$$

PMZ161-020100-
REPUBLIC OF PALAU-

CITY           SKY/WX    TMP DP  RH WIND       PRES   REMARKS
KOROR AP       PTSUNNY   84  77  79 W7        29.87F HX  94
KOROR WSO      PTSUNNY   84  77  79 W7        29.91R HX  94

$$

PMZ171>174-020100-
FEDERATED STATES OF MICRONESIA-

CITY           SKY/WX    TMP DP  RH WIND       PRES   REMARKS
YAP AIRPORT    NOT AVBL
CHUUK AP       CLOUDY    86  79  79 W8        29.87S HX  99
POHNPEI AP     SHOWER    79  77  94 W5        29.89R
POHNPEI WSO    NOT AVBL
KOSRAE AP      LGT RAIN  81  79  94 SW16      29.88R

$$

PMZ181-020100-
REPUBLIC OF THE MARSHALL ISLANDS-

CITY           SKY/WX    TMP DP  RH WIND       PRES   REMARKS
KWAJALEIN AP   MOSUNNY   86  75  70 SW7       29.88S HX  95
MAJURO AP      NOT AVBL
MAJURO WSO     MOSUNNY   88  79  74 S13       29.89F HX 102

$$




USA.gov is the U.S. government's official web portal to all federal, state and local government web resources and services.